This is the latest recevied weather packets stored in our database for station/object KC3BAN-3. If no packets are shown the sender has not sent any weather packets the latest 10 day(s).
| Time | Temp. | Humidity | Pressure | Rain* | Wind** | Luminosity | Snow |
|---|---|---|---|---|---|---|---|
| 1778180924 | 11.67° C | 97% | 1009 hPa | 0.76 mm | - | - | - |
| 1778180496 | 11.67° C | 97% | 1009.1 hPa | 1.02 mm | - | - | - |
| 1778180195 | 11.67° C | 97% | 1009.4 hPa | 1.02 mm | - | - | - |
| 1778179896 | 11.67° C | 97% | 1009.4 hPa | 1.02 mm | - | - | - |
| 1778179595 | 11.67° C | 97% | 1009.6 hPa | 1.27 mm | - | - | - |
| 1778179296 | 11.67° C | 97% | 1009.8 hPa | 1.52 mm | - | - | - |
| 1778178993 | 11.67° C | 97% | 1009.7 hPa | 1.78 mm | - | - | - |
| 1778178693 | 11.67° C | 97% | 1009.7 hPa | 1.78 mm | - | - | - |
| 1778178393 | 11.67° C | 97% | 1009.9 hPa | 1.78 mm | - | - | - |
| 1778178226 | 11.67° C | 97% | 1009.7 hPa | 1.78 mm | - | - | - |
| 1778177797 | 11.67° C | 97% | 1009.9 hPa | 1.78 mm | - | - | - |
| 1778177494 | 11.67° C | 97% | 1010.3 hPa | 1.52 mm | - | - | - |
| 1778177193 | 11.67° C | 97% | 1010.4 hPa | 1.78 mm | - | - | - |
| 1778176894 | 11.67° C | 97% | 1010.4 hPa | 1.52 mm | - | - | - |
| 1778176594 | 11.67° C | 97% | 1010.5 hPa | 1.78 mm | - | - | - |
| 1778176423 | 11.67° C | 97% | 1010.6 hPa | 1.78 mm | - | - | - |
| 1778175994 | 11.67° C | 97% | 1010.6 hPa | 1.52 mm | - | - | - |
| 1778175695 | 11.67° C | 97% | 1010.6 hPa | 1.52 mm | - | - | - |
| 1778175394 | 11.67° C | 97% | 1010.5 hPa | 1.52 mm | - | - | - |
| 1778175093 | 11.67° C | 97% | 1010.6 hPa | 1.52 mm | - | - | - |
| 1778174793 | 11.67° C | 97% | 1010.8 hPa | 1.52 mm | - | - | - |
| 1778174494 | 11.67° C | 97% | 1010.9 hPa | 1.52 mm | - | - | - |
| 1778174194 | 11.67° C | 97% | 1010.9 hPa | 1.78 mm | - | - | - |
| 1778173894 | 11.67° C | 97% | 1010.8 hPa | 2.03 mm | - | - | - |
| 1778173593 | 12.22° C | 97% | 1011 hPa | 1.78 mm | - | - | - |
* Rain latest hour (hover to see other rain measurements)
** Current wind speed in m/s (hover to see current wind gust speed)